#timestamp,LO_Frequency,Hit,StdDev 
1586376015.8,286046998.2,N
1586376035.6,286047000.0,N
1586376055.4,286047000.7,N
1586376075.3,286046998.2,N
1586376095.1,286046999.6,N
1586376115.9,286046995.3,Y
1586376135.7,286046996.8,P
1586376155.5,286046997.4,N
1586376175.4,286046997.2,N
1586376195.2,286046996.5,Y
1586376215.0,286047000.9,P
1586376216.0,286047000.9,N
1586376235.8,286046996.6,N
1586376255.6,286046999.5,N
1586376275.5,286046998.6,N
1586376295.3,286046999.1,N
1586376315.1,286046998.3,N
1586376335.9,286047001.1,N
1586376355.7,286047001.2,N
1586376375.6,286046999.8,N
1586376395.4,286047002.5,N
1586376415.2,286047002.6,N
1586376435.1,286047000.5,N
1586376436.0,286047000.5,N
1586376455.8,286047000.4,N
1586376475.7,286047002.3,N
1586376495.5,286047001.3,N
1586376515.3,286047003.3,N
1586376535.2,286047003.8,N
1586376555.0,286047004.3,N
1586376555.9,286047004.3,N
1586376575.8,286047003.2,N
1586376595.6,286047003.3,N
1586376615.4,286047001.9,N
1586376635.3,286047003.5,N
1586376655.1,286047006.5,Y
1586376675.8,286047007.2,P
1586376695.7,286047005.5,N
1586376715.5,286047006.2,N
1586376735.4,286047006.6,N
1586376755.2,286047009.0,Y
1586376775.0,286047004.3,P
1586376776.0,286047004.3,P
1586376795.8,286046999.9,N
1586376815.6,286047000.1,N
1586376835.5,286047001.7,N
1586376855.3,286047003.7,N
1586376875.1,286047003.4,N
1586376895.9,286047003.5,N
1586376915.7,286047005.2,N
1586376935.6,286047004.8,N
1586376955.4,286047007.6,Y
1586376975.2,286047001.5,P
1586376995.1,286047002.4,N
1586376996.0,286047002.4,P
1586377015.8,286047001.5,N
1586377035.7,286047000.6,N
1586377055.5,286047000.6,N
1586377075.3,286046999.7,N
1586377095.2,286047002.0,N
1586377115.0,286047001.9,N
1586377115.9,286047001.9,N
1586377135.8,286047000.1,N
1586377155.6,286047000.3,N
1586377175.4,286047002.3,N
1586377195.3,286047003.1,Y
1586377215.1,286047003.1,P
1586377235.8,286047001.8,N
1586377255.7,286047002.3,P
1586377275.5,286046999.8,N
1586377295.4,286047003.3,N
1586377315.2,286047004.8,Y
1586377335.0,286047002.5,P
1586377335.9,286047002.5,P
1586377355.8,286047003.7,P
1586377375.6,286047006.0,Y
1586377395.5,286047002.6,P
1586377415.3,286047000.4,P
1586377435.1,286047000.4,N
1586377455.9,286046997.7,N
1586377475.7,286046996.7,N
1586377495.6,286046997.7,N
1586377515.4,286046998.2,N
1586377535.2,286047000.6,N
1586377555.1,286046998.2,N
1586377556.0,286046998.2,N
1586377575.8,286047002.5,N
1586377595.6,286046999.7,N
1586377615.5,286047001.8,N
1586377635.3,286047001.7,N
1586377655.2,286047002.0,N
1586377675.9,286047000.1,N
1586377695.7,286047000.0,N
1586377715.6,286047000.2,N
1586377735.4,286047004.1,N
1586377755.3,286047003.4,N
1586377775.1,286047002.4,N
1586377776.0,286047002.4,N
1586377795.8,286047000.8,N
1586377815.7,286046996.6,N
1586377835.5,286046997.4,N
1586377855.3,286046999.4,N
1586377875.2,286046996.7,N
1586377895.0,286047000.8,N
1586377895.9,286047000.8,N
1586377915.8,286047000.2,N
1586377935.6,286047000.4,N
1586377955.4,286047001.8,N
1586377975.3,286047004.4,N
1586377995.1,286047002.6,N
1586378015.9,286047004.0,N
1586378035.7,286047001.6,N
1586378055.5,286047005.2,N
1586378075.4,286047005.3,N
1586378095.2,286047005.8,N
1586378115.0,286047004.9,N
1586378116.0,286047004.9,N
1586378135.8,286047003.3,N
1586378155.6,286047004.6,N
1586378175.5,286047009.0,Y
1586378195.3,286047002.9,P
1586378215.1,286047005.4,P
1586378235.9,286047004.3,N
1586378255.7,286047001.5,N
1586378275.6,286047001.0,N
1586378295.4,286047000.9,N
1586378315.2,286047000.8,N
1586378335.1,286047002.1,N
1586378336.0,286047002.1,N
1586378355.8,286047002.7,N
1586378375.7,286047000.1,N
1586378395.5,286047002.6,N
1586378415.3,286046999.9,N
1586378435.2,286046998.6,N
1586378455.0,286047002.4,N
1586378455.9,286047002.4,N
1586378475.7,286047004.1,N
1586378495.6,286047002.9,N
1586378515.4,286047003.3,N
1586378535.3,286047003.8,N
1586378555.1,286047002.6,N
1586378575.8,286047000.4,N
1586378595.7,286047000.0,N
1586378615.5,286047000.2,N
1586378635.4,286047002.5,N
1586378655.2,286047004.3,N
1586378675.0,286047003.7,N
1586378675.9,286047003.7,N
1586378695.8,286047003.2,N
1586378715.6,286047005.6,Y
1586378735.5,286047004.4,P
1586378755.3,286047003.5,P
1586378775.1,286047002.9,P
1586378795.9,286047002.8,Y
1586378815.7,286047000.5,P
1586378835.6,286046998.1,N
1586378855.4,286047000.0,N
1586378875.2,286047002.2,N
1586378895.1,286047000.3,N
1586378896.0,286047000.3,N
1586378915.8,286047001.0,N
1586378935.7,286047001.2,N
1586378955.5,286046999.5,N
1586378975.3,286046999.8,N
1586378995.2,286046998.1,N
1586379015.9,286047002.7,N
1586379035.7,286047002.4,N
1586379055.6,286047001.5,N
1586379075.4,286047002.0,N
1586379095.3,286047001.6,N
1586379115.1,286047002.4,N
1586379116.0,286047002.4,N
1586379135.8,286047000.0,N
1586379155.7,286046999.5,N
1586379175.5,286046997.3,N
1586379195.3,286046995.2,Y
1586379215.2,286046996.1,P
1586379235.0,286046995.4,N
1586379235.9,286046995.4,N
1586379255.8,286046995.2,N
1586379275.6,286046997.8,N
1586379295.4,286046999.6,N
1586379315.3,286046997.1,N
1586379335.1,286046996.3,N
1586379355.9,286046997.7,N
1586379375.7,286046998.7,N
1586379395.5,286046998.3,N
1586379415.4,286046998.1,N
1586379435.2,286046998.2,N
1586379455.0,286046998.2,N
1586379455.9,286046998.2,N
1586379475.8,286046998.5,N
1586379495.6,286046996.5,N
1586379515.5,286046998.5,N
1586379535.3,286047000.6,N
1586379555.1,286046996.8,N
1586379575.9,286046998.9,N
1586379595.7,286046999.1,N
